This is the latest recevied weather packets stored in our database for station/object IZ7EXI-13. If no packets are shown the sender has not sent any weather packets the latest 10 day(s).
| Time | Temp. | Humidity | Pressure | Rain* | Wind** | Luminosity | Snow |
|---|---|---|---|---|---|---|---|
| 1777824971 | 28.33° C | 27% | 1019.3 hPa | - | - | - | - |
| 1777824102 | 26.67° C | 28% | 1019.3 hPa | - | - | - | - |
| 1777824071 | 26.67° C | 28% | 1019.3 hPa | - | - | - | - |
| 1777823200 | 26.67° C | 31% | 1019.5 hPa | - | - | - | - |
| 1777823171 | 26.67° C | 31% | 1019.5 hPa | - | - | - | - |
| 1777822298 | 25.56° C | 30% | 1019.5 hPa | - | - | - | - |
| 1777822270 | 25.56° C | 30% | 1019.5 hPa | - | - | - | - |
| 1777821405 | 25° C | 29% | 1019.5 hPa | - | - | - | - |
| 1777821370 | 25° C | 29% | 1019.5 hPa | - | - | - | - |
| 1777820470 | 25° C | 28% | 1019.6 hPa | - | - | - | - |
| 1777819597 | 25° C | 34% | 1019.6 hPa | - | - | - | - |
| 1777819570 | 25° C | 34% | 1019.6 hPa | - | - | - | - |
| 1777818699 | 24.44° C | 32% | 1019.7 hPa | - | - | - | - |
| 1777818669 | 24.44° C | 32% | 1019.7 hPa | - | - | - | - |
| 1777817806 | 25° C | 33% | 1019.8 hPa | - | - | - | - |
| 1777817769 | 25° C | 33% | 1019.8 hPa | - | - | - | - |
| 1777816896 | 25° C | 32% | 1020 hPa | - | - | - | - |
| 1777816869 | 25° C | 32% | 1020 hPa | - | - | - | - |
| 1777815968 | 24.44° C | 26% | 1019.9 hPa | - | - | - | - |
| 1777815095 | 25° C | 26% | 1020.1 hPa | - | - | - | - |
| 1777815068 | 25° C | 26% | 1020.1 hPa | - | - | - | - |
| 1777814168 | 25° C | 23% | 1020.2 hPa | - | - | - | - |
| 1777813297 | 25° C | 23% | 1020.3 hPa | - | - | - | - |
| 1777813267 | 25° C | 23% | 1020.3 hPa | - | - | - | - |
| 1777812398 | 25° C | 25% | 1020.6 hPa | - | - | - | - |
* Rain since midnight (hover to see other rain measurements)
** Current wind speed in m/s (hover to see current wind gust speed)